When you browse on this site, cookies collect data to enhance your experience and personalize the content and advertising you see.
Visit our Privacy Policy to learn more. By continuing to use the site, you agree to this use of cookies and data.
  • In Hungary
  • List of Countries
  • For 7 days
  • Water Temperature
  • Satellite Maps
  • Weather Map
  • News
  • Weather Widgets
  • user-avatar
    Login

    Hourly Weather Ceccano

    Today, 20 January, Sunday

    Time Temperature Precipitation Wind Pressure Humidity
    00:00 +5°C° 0 mm 1 mps 741 mmHg 87%
    01:00 +5°C° 0 mm 1 mps 740 mmHg 87%
    02:00 +5°C° 0 mm 1 mps 740 mmHg 86%
    03:00 +5°C° 0 mm 1 mps 740 mmHg 85%
    04:00 +5°C° 0 mm 1 mps 740 mmHg 84%
    05:00 +5°C° 0.2 mm 1 mps 740 mmHg 84%
    06:00 +6°C° 0.2 mm 1 mps 740 mmHg 83%
    07:00 +6°C° 0.2 mm 1 mps 740 mmHg 82%
    08:00 +6°C° 0.7 mm 1 mps 740 mmHg 82%
    09:00 +6°C° 0.7 mm 2 mps 740 mmHg 82%
    10:00 +6°C° 0.7 mm 2 mps 740 mmHg 82%
    11:00 +7°C° 0.3 mm 2 mps 740 mmHg 82%
    12:00 +7°C° 0.3 mm 2 mps 740 mmHg 81%
    13:00 +8°C° 0.3 mm 2 mps 739 mmHg 81%
    14:00 +8°C° 0.1 mm 2 mps 739 mmHg 82%
    15:00 +8°C° 0.1 mm 2 mps 739 mmHg 84%
    16:00 +8°C° 0.1 mm 2 mps 739 mmHg 86%
    17:00 +8°C° 0.1 mm 2 mps 739 mmHg 87%
    18:00 +7°C° 0.1 mm 2 mps 739 mmHg 89%
    19:00 +6°C° 0.1 mm 2 mps 739 mmHg 91%
    20:00 +6°C° 0 mm 2 mps 740 mmHg 90%
    21:00 +6°C° 0 mm 2 mps 740 mmHg 90%
    22:00 +6°C° 0 mm 2 mps 740 mmHg 89%
    23:00 +6°C° 0 mm 2 mps 740 mmHg 90%

    Tomorrow, 21 January, Monday

    Time Temperature Precipitation Wind Pressure Humidity
    00:00 +5°C° 0 mm 2 mps 740 mmHg 90%
    01:00 +5°C° 0 mm 2 mps 740 mmHg 90%
    02:00 +5°C° 0 mm 2 mps 740 mmHg 90%
    03:00 +5°C° 0 mm 2 mps 740 mmHg 90%
    04:00 +5°C° 0 mm 2 mps 740 mmHg 90%
    05:00 +5°C° 0 mm 2 mps 740 mmHg 90%
    06:00 +5°C° 0 mm 2 mps 740 mmHg 89%
    07:00 +4°C° 0 mm 2 mps 740 mmHg 89%
    08:00 +6°C° 0 mm 2 mps 740 mmHg 86%
    09:00 +7°C° 0 mm 2 mps 740 mmHg 83%
    10:00 +9°C° 0 mm 1 mps 740 mmHg 81%
    11:00 +10°C° 0.1 mm 1 mps 740 mmHg 79%
    12:00 +10°C° 0.1 mm 1 mps 740 mmHg 76%
    13:00 +11°C° 0.1 mm 1 mps 740 mmHg 74%
    14:00 +11°C° 0.2 mm 1 mps 740 mmHg 77%
    15:00 +10°C° 0.2 mm 1 mps 740 mmHg 80%
    16:00 +10°C° 0.2 mm 1 mps 739 mmHg 82%
    17:00 +9°C° 0.1 mm 1 mps 739 mmHg 83%
    18:00 +9°C° 0.1 mm 1 mps 740 mmHg 83%
    19:00 +7°C° 0.1 mm 2 mps 740 mmHg 84%
    20:00 +7°C° 0 mm 2 mps 740 mmHg 83%
    21:00 +7°C° 0 mm 2 mps 740 mmHg 83%
    22:00 +6°C° 0 mm 2 mps 740 mmHg 82%
    23:00 +6°C° 0 mm 2 mps 739 mmHg 82%

    Day after tomorrow, 22 January, Tuesday

    Time Temperature Precipitation Wind Pressure Humidity
    00:00 +6°C° 0 mm 2 mps 739 mmHg 81%
    01:00 +5°C° 0 mm 2 mps 738 mmHg 81%
    02:00 +5°C° 0.1 mm 2 mps 738 mmHg 81%
    03:00 +5°C° 0.1 mm 2 mps 738 mmHg 80%
    04:00 +5°C° 0.1 mm 2 mps 737 mmHg 80%
    05:00 +5°C° 0.2 mm 2 mps 737 mmHg 81%
    06:00 +5°C° 0.2 mm 2 mps 737 mmHg 81%
    07:00 +5°C° 0.2 mm 2 mps 736 mmHg 82%
    08:00 +6°C° 0.4 mm 2 mps 736 mmHg 81%
    09:00 +7°C° 0.4 mm 1 mps 736 mmHg 81%
    10:00 +8°C° 0.4 mm 1 mps 736 mmHg 81%
    11:00 +8°C° 0.6 mm 1 mps 736 mmHg 82%
    12:00 +8°C° 0.6 mm 1 mps 735 mmHg 82%
    13:00 +8°C° 0.6 mm 1 mps 735 mmHg 82%
    14:00 +9°C° 0.2 mm 1 mps 734 mmHg 82%
    15:00 +9°C° 0.2 mm 1 mps 734 mmHg 81%
    16:00 +8°C° 0.2 mm 0 mps 733 mmHg 81%
    17:00 +8°C° 0 mm 1 mps 733 mmHg 83%
    18:00 +7°C° 0 mm 1 mps 733 mmHg 84%
    19:00 +6°C° 0 mm 1 mps 732 mmHg 86%
    20:00 +6°C° 0 mm 1 mps 732 mmHg 86%
    21:00 +5°C° 0 mm 1 mps 732 mmHg 86%
    22:00 +5°C° 0 mm 1 mps 732 mmHg 86%
    23:00 +5°C° 0 mm 1 mps 731 mmHg 87%

    23 January, Wednesday

    Time Temperature Precipitation Wind Pressure Humidity
    00:00 +4°C° 0 mm 1 mps 731 mmHg 87%
    01:00 +4°C° 0 mm 1 mps 730 mmHg 88%
    02:00 +4°C° 0 mm 1 mps 730 mmHg 89%
    03:00 +4°C° 0 mm 1 mps 730 mmHg 90%
    04:00 +4°C° 0 mm 1 mps 729 mmHg 90%
    05:00 +4°C° 0 mm 1 mps 729 mmHg 90%
    06:00 +3°C° 0 mm 1 mps 729 mmHg 90%
    07:00 +3°C° 0 mm 1 mps 729 mmHg 90%
    08:00 +5°C° 0 mm 1 mps 729 mmHg 86%
    09:00 +5°C° 0 mm 2 mps 729 mmHg 82%
    10:00 +6°C° 0 mm 2 mps 729 mmHg 78%
    11:00 +7°C° 0 mm 3 mps 728 mmHg 76%
    12:00 +8°C° 0 mm 3 mps 728 mmHg 73%
    13:00 +7°C° 0 mm 4 mps 727 mmHg 70%
    14:00 +6°C° 0.7 mm 4 mps 727 mmHg 76%
    15:00 +7°C° 0.7 mm 3 mps 727 mmHg 82%
    16:00 +5°C° 0.7 mm 3 mps 726 mmHg 88%
    17:00 +5°C° 1 mm 3 mps 726 mmHg 90%
    18:00 +5°C° 1 mm 3 mps 726 mmHg 91%
    19:00 +5°C° 1 mm 3 mps 727 mmHg 92%
    20:00 +5°C° 1.3 mm 3 mps 727 mmHg 92%
    21:00 +5°C° 1.3 mm 3 mps 727 mmHg 91%
    22:00 +6°C° 1.3 mm 2 mps 727 mmHg 91%
    23:00 +6°C° 0.7 mm 2 mps 727 mmHg 89%

    24 January, Thursday

    Time Temperature Precipitation Wind Pressure Humidity
    00:00 +5°C° 0.7 mm 2 mps 726 mmHg 87%
    01:00 +5°C° 0.7 mm 2 mps 726 mmHg 86%
    02:00 +4°C° 0 mm 3 mps 726 mmHg 85%
    03:00 +3°C° 0 mm 3 mps 725 mmHg 85%
    04:00 +3°C° 0 mm 3 mps 725 mmHg 84%
    05:00 +3°C° 0 mm 3 mps 725 mmHg 84%
    06:00 +3°C° 0 mm 3 mps 725 mmHg 83%
    07:00 +2°C° 0 mm 3 mps 724 mmHg 83%
    08:00 +4°C° 0 mm 3 mps 725 mmHg 81%
    09:00 +5°C° 0 mm 3 mps 725 mmHg 79%
    10:00 +8°C° 0 mm 2 mps 725 mmHg 77%
    11:00 +9°C° 0 mm 2 mps 725 mmHg 74%
    12:00 +9°C° 0 mm 2 mps 725 mmHg 71%
    13:00 +10°C° 0 mm 2 mps 726 mmHg 68%
    14:00 +10°C° 0 mm 2 mps 726 mmHg 70%
    15:00 +9°C° 0 mm 2 mps 726 mmHg 72%
    16:00 +8°C° 0 mm 2 mps 726 mmHg 74%
    17:00 +7°C° 0 mm 2 mps 726 mmHg 75%
    18:00 +6°C° 0 mm 2 mps 727 mmHg 76%
    19:00 +5°C° 0 mm 2 mps 727 mmHg 78%
    20:00 +5°C° 0 mm 2 mps 727 mmHg 78%
    21:00 +5°C° 0 mm 2 mps 728 mmHg 77%
    22:00 +4°C° 0 mm 2 mps 728 mmHg 77%
    23:00 +4°C° 0 mm 2 mps 728 mmHg 77%

    25 January, Friday

    Time Temperature Precipitation Wind Pressure Humidity
    00:00 +4°C° 0 mm 2 mps 729 mmHg 77%
    01:00 +3°C° 0 mm 2 mps 729 mmHg 77%
    02:00 +3°C° 0 mm 2 mps 729 mmHg 77%
    03:00 +3°C° 0 mm 2 mps 729 mmHg 77%
    04:00 +3°C° 0 mm 2 mps 729 mmHg 77%
    05:00 +3°C° 0 mm 2 mps 729 mmHg 77%
    06:00 +3°C° 0 mm 2 mps 730 mmHg 77%
    07:00 +3°C° 0 mm 2 mps 730 mmHg 76%
    08:00 +5°C° 0 mm 2 mps 731 mmHg 73%
    09:00 +6°C° 0 mm 2 mps 731 mmHg 71%
    10:00 +7°C° 0 mm 2 mps 732 mmHg 68%
    11:00 +9°C° 0 mm 1 mps 732 mmHg 64%
    12:00 +10°C° 0 mm 1 mps 732 mmHg 61%
    13:00 +11°C° 0 mm 1 mps 733 mmHg 57%
    14:00 +11°C° 0 mm 1 mps 733 mmHg 61%
    15:00 +10°C° 0 mm 1 mps 733 mmHg 65%
    16:00 +10°C° 0 mm 1 mps 734 mmHg 69%
    17:00 +9°C° 0 mm 1 mps 734 mmHg 71%
    18:00 +8°C° 0 mm 1 mps 735 mmHg 73%
    19:00 +6°C° 0 mm 2 mps 736 mmHg 76%
    20:00 +5°C° 0 mm 2 mps 736 mmHg 76%
    21:00 +4°C° 0 mm 2 mps 737 mmHg 77%
    22:00 +3°C° 0 mm 2 mps 737 mmHg 77%
    23:00 +3°C° 0 mm 2 mps 738 mmHg 76%
    Show more